Regional Weather Roundup
Issued by NWS

Home | Current Version | Previous Version | Graphics & Text | Print | Product List | Glossary Off
Versions: 1 2 3 4 5 6 7 8 9 10 11 12 13 14 15 16 17 18 19 20 21 22 23 24 25 26 27 28 29 30 31 32 33 34 35 36 37 38 39 40 41 42 43 44 45 46 47 48 49 50

000
ASUS43 KFSD 202310
RWRSD

WEATHER ROUNDUP FOR SOUTH DAKOTA
NATIONAL WEATHER SERVICE SIOUX FALLS SD
500 PM CST THU NOV 20 2014

NOTE: "FAIR" INDICATES FEW OR NO CLOUDS BELOW 12,000 FEET WITH NO
SIGNIFICANT WEATHER AND/OR OBSTRUCTIONS TO VISIBILITY.


SDZ001>005-009-010-012>017-210000-
NORTHWEST AND NORTH CENTRAL SOUTH DAKOTA

CITY           SKY/WX    TMP DP  RH WIND       PRES   REMARKS
BUFFALO          N/A     32  22  66 S9        29.82S WCI  24
FAITH            N/A     22  15  75 S14       29.95S WCI   9
MOBRIDGE       CLOUDY    23  16  74 S12       30.01F WCI  12
$$

SDZ012>016-024>037-041>051-057-063-072>074-210000-
SOUTHWEST AND SOUTH CENTRAL SOUTH DAKOTA

CITY           SKY/WX    TMP DP  RH WIND       PRES   REMARKS
RAPID CTY ARPT CLEAR     25  19  78 SE8       29.92R WCI  16
PIERRE         PTCLDY    21  16  81 SE10      30.05F WCI  10
CUSTER         CLEAR     41  17  38 W8        29.89R
ELLSWORTH AFB  CLEAR     27  22  80 S8        29.91R WCI  19
PHILIP         CLEAR     26  19  74 E9        30.00S WCI  17
PINE RIDGE     CLEAR     37  24  59 CALM      29.92F
SPEARFISH      FAIR      36  25  64 CALM      29.88S
WINNER         FAIR      25  17  72 SE12      30.06S WCI  14
$$

SDZ004>011-016>023-039-040-210000-
NORTHEAST SOUTH DAKOTA

CITY           SKY/WX    TMP DP  RH WIND       PRES   REMARKS
ABERDEEN       CLEAR     11   5  77 SE9       30.14S WCI  -2
WATERTOWN      CLEAR     11   4  73 SW5       30.12S WCI   3
SISSETON         N/A     15   6  67 W3        30.15S
$$

SDZ017-020-022-023-036>040-048>070-210000-
SOUTHEAST SOUTH DAKOTA

CITY           SKY/WX    TMP DP  RH WIND       PRES   REMARKS
SIOUX FALLS    CLEAR     17   8  67 CALM      30.17S
HURON          CLEAR     15   8  73 SE7       30.15F WCI   5
CHAMBERLAIN    CLOUDY    22  16  78 SE7       30.09F WCI  14
MITCHELL       CLEAR     21  12  68 CALM      30.17S
YANKTON        PTCLDY    21  12  68 N3        30.19F
$$

ABBREVIATIONS USED IN REMARKS
   TC - TEMPERATURE IN CELSIUS
  WCI - WIND CHILL INDEX
   HX - HEAT INDEX
  VSB - VISIBILITY



USA.gov is the U.S. government's official web portal to all federal, state and local government web resources and services.